Total_Precipitation_Accumulation
0.00 0.00 0.01 0.01 0.00 0.00 0.00 0.00 0.00 0.00 0.00 0.00 0.00 0.00 0.00 0.00 0.00 0.00 0.00 0.01 0.01 0.01 0.01 0.01 0.01 0.01 0.01 0.01 0.01 0.01 0.01 0.01 0.01 0.02 0.03 0.05 0.06 0.07 0.09 0.13 0.24 0.27 0.21
0.00 0.00 0.01 0.01 0.00 0.00 0.00 0.00 0.00 0.00 0.00 0.00 0.00 0.00 0.00 0.00 0.00 0.00 0.00 0.00 0.01 0.01 0.01 0.01 0.01 0.01 0.01 0.01 0.01 0.00 0.00 0.01 0.02 0.03 0.04 0.06 0.10 0.12 0.09 0.10 0.21 0.20 0.13
0.00 0.00 0.01 0.01 0.00 0.00 0.00 0.00 0.00 0.00 0.00 0.01 0.00 0.00 0.00 0.00 0.00 0.00 0.01 0.01 0.01 0.01 0.02 0.01 0.01 0.01 0.01 0.00 0.00 0.00 0.00 0.01 0.02 0.03 0.07 0.06 0.07 0.13 0.11 0.10 0.13 0.09 0.08
0.00 0.00 0.00 0.00 0.00 0.00 0.00 0.00 0.00 0.00 0.01 0.01 0.01 0.01 0.00 0.00 0.00 0.01 0.01 0.01 0.01 0.02 0.03 0.02 0.01 0.01 0.00 0.00 0.00 0.00 0.01 0.01 0.02 0.04 0.17 0.19 0.06 0.09 0.06 0.05 0.06 0.04 0.04
0.00 0.00 0.00 0.01 0.00 0.00 0.00 0.00 0.01 0.01 0.01 0.01 0.01 0.01 0.01 0.01 0.01 0.01 0.01 0.02 0.02 0.03 0.03 0.02 0.01 0.01 0.00 0.00 0.00 0.00 0.01 0.01 0.02 0.05 0.10 0.17 0.16 0.10 0.06 0.03 0.04 0.04 0.03
0.00 0.00 0.00 0.01 0.01 0.00 0.00 0.01 0.01 0.01 0.02 0.02 0.01 0.01 0.01 0.01 0.02 0.02 0.02 0.02 0.02 0.03 0.03 0.02 0.02 0.01 0.00 0.00 0.00 0.01 0.01 0.01 0.02 0.04 0.07 0.11 0.22 0.18 0.15 0.10 0.05 0.04 0.02
0.00 0.00 0.00 0.01 0.01 0.01 0.00 0.00 0.01 0.01 0.01 0.01 0.01 0.01 0.02 0.02 0.02 0.02 0.03 0.02 0.02 0.03 0.03 0.02 0.01 0.01 0.01 0.00 0.00 0.01 0.02 0.02 0.03 0.09 0.11 0.15 0.28 0.26 0.42 0.44 0.27 0.14 0.05
0.00 0.00 0.01 0.01 0.01 0.01 0.01 0.01 0.01 0.01 0.01 0.01 0.01 0.01 0.02 0.02 0.03 0.03 0.03 0.03 0.03 0.03 0.02 0.02 0.01 0.01 0.01 0.01 0.01 0.03 0.06 0.05 0.06 0.10 0.15 0.23 0.26 0.31 0.64 0.75 0.58 0.42 0.27
0.00 0.00 0.01 0.01 0.01 0.02 0.01 0.01 0.01 0.02 0.02 0.02 0.01 0.02 0.02 0.02 0.02 0.03 0.03 0.04 0.05 0.06 0.04 0.03 0.02 0.02 0.02 0.03 0.06 0.10 0.12 0.10 0.07 0.11 0.11 0.19 0.23 0.33 0.74 0.79 0.61 0.50 0.38
0.01 0.01 0.01 0.01 0.02 0.02 0.02 0.02 0.02 0.02 0.02 0.02 0.02 0.02 0.02 0.02 0.03 0.03 0.04 0.04 0.05 0.07 0.07 0.06 0.06 0.07 0.07 0.08 0.11 0.12 0.11 0.06 0.06 0.09 0.07 0.11 0.20 0.46 0.79 0.84 0.78 0.67 0.50
0.05 0.03 0.02 0.03 0.04 0.04 0.03 0.04 0.05 0.05 0.05 0.04 0.04 0.03 0.03 0.03 0.03 0.05 0.06 0.10 0.12 0.15 0.16 0.17 0.19 0.22 0.22 0.18 0.18 0.18 0.14 0.13 0.16 0.05 0.05 0.08 0.23 0.51 0.74 0.85 0.88 0.81 0.70
0.06 0.04 0.04 0.05 0.06 0.07 0.06 0.09 0.12 0.12 0.14 0.12 0.10 0.13 0.13 0.14 0.10 0.08 0.16 0.29 0.36 0.47 0.48 0.48 0.58 0.57 0.44 0.28 0.33 0.53 0.24 0.19 0.17 0.10 0.14 0.15 0.26 0.48 0.69 0.79 0.76 0.75 0.74
0.08 0.07 0.09 0.12 0.12 0.12 0.12 0.13 0.17 0.23 0.37 0.39 0.37 0.43 0.44 0.43 0.31 0.22 0.26 0.41 0.54 0.71 0.68 0.85 1.09 0.82 0.69 0.62 0.62 0.63 0.40 0.33 0.24 0.22 0.24 0.32 0.44 0.62 0.76 0.75 0.75 0.77 0.75
0.18 0.17 0.20 0.26 0.26 0.26 0.28 0.28 0.28 0.30 0.37 0.43 0.46 0.54 0.68 0.66 0.59 0.53 0.48 0.49 0.62 0.74 0.95 1.08 1.16 1.20 1.23 1.02 0.88 0.76 0.66 0.57 0.42 0.42 0.45 0.53 0.68 0.84 0.95 0.84 0.78 0.75 0.75
0.34 0.43 0.51 0.53 0.50 0.51 0.51 0.49 0.40 0.38 0.37 0.39 0.54 0.66 0.84 0.92 0.95 0.98 0.86 0.84 0.74 0.90 1.18 1.38 1.33 1.47 1.60 1.43 1.18 1.01 0.89 0.75 0.62 0.54 0.55 0.70 0.71 0.75 0.89 0.93 0.90 0.81 0.78
0.53 0.73 0.80 0.79 0.81 0.80 0.78 0.74 0.66 0.59 0.57 0.59 0.74 0.88 1.18 1.28 1.30 1.34 1.22 1.11 0.88 0.97 1.21 1.46 1.51 1.66 1.65 1.62 1.26 1.13 0.98 0.92 0.81 0.72 0.69 0.78 0.82 0.74 0.74 0.85 0.92 0.94 0.92
0.74 0.92 1.02 1.08 1.22 1.32 1.28 1.11 0.97 0.83 0.83 0.93 1.13 1.31 1.53 1.66 1.71 1.73 1.54 1.29 1.17 1.35 1.45 1.46 1.52 1.87 1.70 1.54 1.31 1.36 1.29 1.17 1.00 0.89 0.86 0.83 0.71 0.69 0.68 0.68 0.79 0.90 1.03
0.98 1.16 1.34 1.53 1.73 1.84 1.70 1.51 1.42 1.34 1.38 1.35 1.43 1.58 1.62 1.70 1.78 1.92 1.62 1.32 1.49 1.68 1.62 1.55 1.60 1.80 1.78 1.82 1.68 1.56 1.43 1.28 0.98 0.89 0.84 0.74 0.69 0.52 0.56 0.69 0.75 0.82 1.07
1.45 1.67 1.90 2.20 2.33 2.18 1.98 1.82 1.75 1.67 1.56 1.39 1.25 1.22 1.19 1.20 1.27 1.32 1.02 0.95 1.24 1.33 1.20 1.17 1.41 1.56 1.56 1.68 1.68 1.41 1.19 1.01 0.84 0.78 0.76 0.60 0.59 0.57 0.50 0.62 0.70 0.76 1.04
1.79 2.29 2.71 2.77 2.44 2.13 1.87 1.66 1.56 1.42 1.32 1.19 1.02 0.92 0.83 0.81 0.85 0.88 0.71 0.72 0.98 1.04 0.96 1.08 1.18 1.22 1.16 1.23 1.15 0.90 0.85 0.73 0.71 0.66 0.54 0.50 0.48 0.45 0.48 0.54 0.63 0.58 0.85
2.32 2.99 3.20 2.80 2.37 1.96 1.68 1.41 1.17 0.98 0.92 0.87 0.74 0.69 0.69 0.71 0.74 0.83 0.72 0.79 0.94 0.94 0.91 0.97 1.03 0.96 0.80 0.97 1.03 0.75 0.59 0.55 0.55 0.48 0.43 0.41 0.34 0.33 0.41 0.49 0.58 0.61 0.53
2.24 2.70 2.69 2.24 1.79 1.32 1.03 0.93 0.82 0.69 0.60 0.51 0.48 0.51 0.49 0.55 0.63 0.72 0.66 0.58 0.63 0.65 0.60 0.64 0.81 0.83 0.73 0.86 0.95 0.82 0.57 0.51 0.46 0.33 0.34 0.32 0.28 0.34 0.42 0.44 0.55 0.66 0.67
2.05 1.94 1.78 1.35 0.88 0.65 0.49 0.47 0.42 0.41 0.40 0.33 0.29 0.32 0.32 0.35 0.39 0.46 0.49 0.50 0.55 0.62 0.60 0.60 0.64 0.68 0.62 0.63 0.78 0.88 0.67 0.44 0.38 0.34 0.32 0.28 0.30 0.40 0.47 0.55 0.57 0.57 0.64
1.52 1.17 0.89 0.69 0.45 0.32 0.29 0.32 0.32 0.30 0.30 0.26 0.23 0.25 0.23 0.24 0.27 0.30 0.33 0.34 0.41 0.52 0.58 0.54 0.54 0.57 0.56 0.49 0.55 0.64 0.64 0.57 0.50 0.38 0.35 0.35 0.38 0.47 0.60 0.67 0.73 0.68 0.65
0.83 0.67 0.53 0.45 0.35 0.34 0.35 0.37 0.39 0.28 0.23 0.21 0.20 0.20 0.20 0.23 0.26 0.27 0.28 0.28 0.31 0.35 0.39 0.42 0.48 0.52 0.53 0.49 0.48 0.54 0.62 0.64 0.62 0.53 0.43 0.40 0.38 0.34 0.48 0.65 0.76 0.76 0.67
0.34 0.35 0.36 0.40 0.44 0.42 0.35 0.31 0.31 0.27 0.23 0.20 0.18 0.18 0.19 0.22 0.26 0.29 0.30 0.30 0.32 0.32 0.33 0.36 0.39 0.43 0.49 0.52 0.51 0.55 0.64 0.68 0.64 0.62 0.54 0.46 0.43 0.38 0.42 0.58 0.81 0.90 0.82